This demonstration page uses our WeatherBlox Daily Observations layout. Learn more.

Left ArrowRight Arrow

39.08367, -84.50855

Hourly Observations for March 9, 2019

Temp ( °F °C ) Dew Point ( °F °C ) Humidity (%) Winds ( mph kmh ) Pressure ( in mb ) Visibility ( mi km ) Precip ( " mm )
12:04 am 00:04 Cloudy 36 2.2 31 -0.6 82 82 E 6 9 30.18 1022 10 16 N/A
12:53 am 00:53 Cloudy 36 2.2 31 -0.6 82 82 E 5 7 30.15 1021 10 16 N/A
1:53 am 01:53 Cloudy 36 2.2 31 -0.6 82 82 E 7 11 30.15 1021 10 16 N/A
2:53 am 02:53 Cloudy 35 1.7 31 -0.6 85 85 E 7 11 30.15 1021 10 16 N/A
3:53 am 03:53 Cloudy 35 1.7 31 -0.6 85 85 ENE 7 11 30.14 1021 10 16 N/A
4:07 am 04:07 Cloudy 35 1.7 32 undefined 89 89 NE 8 13 30.14 1021 10 16 N/A
4:53 am 04:53 Cloudy 35 1.7 32 undefined 89 89 ENE 7 11 30.12 1020 10 16 N/A
5:53 am 05:53 Cloudy 35 1.7 32 undefined 89 89 NE 6 9 30.12 1020 10 16 N/A
6:53 am 06:53 Cloudy 35 1.7 32 undefined 89 89 NE 5 7 30.12 1020 10 16 N/A
7:53 am 07:53 Cloudy 36 2.2 33 0.6 89 89 NE 7 11 30.11 1020 10 16 N/A
8:19 am 08:19 Cloudy 36 2.2 33 0.6 89 89 ENE 5 7 30.12 1020 9 14 N/A
8:53 am 08:53 Cloudy 37 2.8 33 0.6 86 86 NE 5 7 30.11 1020 10 16 N/A
9:53 am 09:53 Cloudy 39 3.9 34 1.1 82 82 E 6 9 30.08 1019 10 16 N/A
10:53 am 10:53 Cloudy 40 4.4 35 1.7 83 83 E 8 13 30.03 1017 10 16 N/A
11:53 am 11:53 Cloudy 43 6.1 37 2.8 80 80 VRB 7 11 30.01 1016 10 16 N/A
12:53 pm 12:53 Cloudy 45 7.2 38 3.3 77 77 E 10 17 29.95 1014 10 16 N/A
1:53 pm 13:53 Cloudy 46 7.8 40 4.4 79 79 E 8 13 29.87 1012 10 16 N/A
2:30 pm 14:30 Cloudy with Thunderstorms 46 7.8 41 5 83 83 E 7 11 29.87 1012 6 10 N/A
2:53 pm 14:53 Cloudy with Thunderstorms 45 7.2 42 5.6 90 90 E 8 13 29.82 1010 3 5 N/A
3:10 pm 15:10 Cloudy with Thunderstorms 45 7.2 43 6.1 93 93 ENE 8 13 29.80 1009 3 5 N/A
3:41 pm 15:41 Cloudy with Nearby Thunderstorms 46 7.8 43 6.1 89 89 E 10 17 29.74 1007 3 5 N/A
3:53 pm 15:53 Cloudy with Nearby Thunderstorms 46 7.8 44 6.7 93 93 ESE 8 13 29.75 1007 4 6 N/A
4:08 pm 16:08 Cloudy with Thunderstorms 46 7.8 44 6.7 93 93 WSW 10 17 29.79 1009 2 3 N/A
4:28 pm 16:28 Cloudy with Rain 47 8.3 45 7.2 93 93 ESE 6 9 29.76 1008 2 3 N/A
4:53 pm 16:53 Cloudy with Rain 48 8.9 45 7.2 89 89 SE 6 9 29.73 1007 3 4 N/A
5:00 pm 17:00 Cloudy with Light Rain 49 9.4 46 7.8 90 90 ESE 6 9 29.73 1007 3 5 N/A
5:07 pm 17:07 Cloudy with Light Rain 49 9.4 46 7.8 90 90 VRB 5 7 29.72 1006 5 8 N/A
5:34 pm 17:34 Cloudy with Heavy Rain 50 10 47 8.3 89 89 VRB 5 7 29.68 1005 2 3 N/A
5:53 pm 17:53 Cloudy with Heavy Rain 50 10 48 8.9 93 93 VRB 7 11 29.65 1004 3 4 N/A
6:33 pm 18:33 Cloudy with Light Rain 51 10.6 49 9.4 92 92 SSE 15 24 29.63 1003 3 5 N/A
6:53 pm 18:53 Cloudy with Light Rain 52 11.1 49 9.4 89 89 S 12 19 29.61 1003 5 8 N/A
7:53 pm 19:53 Cloudy with Rain 53 11.7 51 10.6 93 93 WNW 15 24 29.61 1003 3 5 N/A
8:14 pm 20:14 Cloudy with Light Rain 52 11.1 51 10.6 97 97 SE 5 7 29.59 1002 9 14 N/A
8:53 pm 20:53 Mostly Cloudy 51 10.6 50 10 96 96 WSW 3 6 29.57 1001 8 13 N/A
9:53 pm 21:53 Mostly Cloudy 59 15 54 12.2 83 83 S 16 26 29.58 1002 10 16 N/A
10:53 pm 22:53 Clear 57 13.9 54 12.2 90 90 S 13 20 29.60 1002 10 16 N/A
11:53 pm 23:53 Clear 58 14.4 53 11.7 84 84 SSW 16 26 29.60 1002 10 16 N/A

Powered by AerisWeather